Terminal Aerodrome Forecast
Issued by NWS Quad Cities IA IL

Home | Current Version | Previous Version | Text Only | Print | Product List | Glossary On
Versions: 1 2 3 4 5 6 7 8 9 10 11 12 13 14 15 16 17 18 19 20 21 22 23 24 25 26 27 28 29 30 31 32 33 34 35
918
FTUS43 KDVN 241919 AAA
TAFDBQ
TAF AMD
KDBQ 241919Z 2419/2518 29006KT P6SM BKN025
     FM242200 31009KT P6SM SCT250
     FM251000 33006KT P6SM SKC=

USA.gov is the U.S. government's official web portal to all federal, state and local government web resources and services.